Location: Mohawk View
(42.7837°N, 73.7885°W)
Time: 02:08:18
(UTC+00:00)

Meteor 1-21 Rocket - Pass Details

Date: 17 June 2021
Orbit: 834 x 906 km, 81.2° (Epoch: 02 August)

Event Time Altitude Azimuth Distance (km) Brightness Sun altitude
Exits shadow 04:46:49 50° 219° (SW) 1,077 4.4 -23.8°
Maximum altitude 04:48:12 69° 281° (WNW) 913 4.3 -23.8°
Drops below altitude 10° 04:53:54 10° 5° (N) 2,517 7.7 -23.8°
Sets 04:56:23 0° 8° (N) 3,470 8.8 -23.8°
